Location: Ariel
(45.9570°N, 122.5700°W)
Time: 09:05:16
(UTC-07:00)

Transit 4A - Pass Details

Date: 19 July 2019
Orbit: 863 x 981 km, 66.8° (Epoch: 22 August)

Event Time Altitude Azimuth Distance (km) Brightness Sun altitude
Rises 11:26:11 0° 327° (NNW) 3,679 10.7 56.2°
Reaches altitude 10° 11:28:48 10° 330° (NNW) 2,718 10.1 56.6°
Maximum altitude 11:35:10 72° 55° (NE) 999 9.3 57.4°
Drops below altitude 10° 11:41:18 10° 140° (SE) 2,630 11.0 58.2°
Sets 11:43:47 0° 142° (SE) 3,551 11.4 58.5°
